GLO1838 SBBR-SBGL

Flight info

Callsign GLO1838
Flight time 2h 1m
Altitude 39000
Route GEPMO UZ24 MAVGU
Aircraft B38M/M-DFGHIJ4J7KLORWXY/LB1

Departure

Time 2026-04-27 02:14
Airport Presidente Juscelino Kubitschek International Airport (SBBR)

Arrival

Time 2026-04-27 04:16
Airport Rio Galeão – Tom Jobim International Airport (SBGL)
Time Latitude Longitude Altitude Speed Heading
2026-04-27 01:34 -15.86711 -47.91933 3467 ft 0 kts 176°
2026-04-27 01:58 -15.86705 -47.91934 3536 ft 2 kts 175°
2026-04-27 01:58 -15.86685 -47.91936 3548 ft 3 kts 170°
2026-04-27 01:59 -15.86666 -47.91941 3466 ft 3 kts 162°
2026-04-27 01:59 -15.86647 -47.91948 3466 ft 3 kts 152°
2026-04-27 01:59 -15.86631 -47.91959 3466 ft 3 kts 131°
2026-04-27 01:59 -15.86623 -47.91974 3465 ft 2 kts 93°
2026-04-27 02:00 -15.86622 -47.91979 3465 ft 1 kts 86°
2026-04-27 02:02 -15.86622 -47.91976 3469 ft 2 kts 86°
2026-04-27 02:03 -15.86621 -47.91958 3467 ft 3 kts 86°
2026-04-27 02:03 -15.86619 -47.91928 3466 ft 5 kts 86°
2026-04-27 02:03 -15.86617 -47.91893 3466 ft 4 kts 86°
2026-04-27 02:03 -15.86615 -47.91856 3467 ft 6 kts 86°
2026-04-27 02:04 -15.86611 -47.91795 3467 ft 10 kts 86°
2026-04-27 02:04 -15.86626 -47.91730 3467 ft 9 kts 136°
2026-04-27 02:04 -15.86702 -47.91710 3467 ft 14 kts 175°
2026-04-27 02:04 -15.86816 -47.91702 3467 ft 18 kts 176°
2026-04-27 02:05 -15.86936 -47.91694 3467 ft 17 kts 176°
2026-04-27 02:05 -15.87057 -47.91685 3467 ft 17 kts 176°
2026-04-27 02:05 -15.87170 -47.91678 3410 ft 15 kts 176°
2026-04-27 02:05 -15.87268 -47.91671 3467 ft 14 kts 176°
2026-04-27 02:06 -15.87374 -47.91664 3467 ft 17 kts 176°
2026-04-27 02:06 -15.87506 -47.91655 3467 ft 20 kts 176°
2026-04-27 02:06 -15.87645 -47.91647 3465 ft 20 kts 176°
2026-04-27 02:06 -15.87738 -47.91701 3464 ft 16 kts 263°
2026-04-27 02:07 -15.87744 -47.91797 3466 ft 11 kts 266°
2026-04-27 02:07 -15.87750 -47.91875 3468 ft 12 kts 265°
2026-04-27 02:07 -15.87756 -47.91974 3470 ft 15 kts 267°
2026-04-27 02:07 -15.87762 -47.92082 3472 ft 15 kts 266°
2026-04-27 02:08 -15.87769 -47.92183 3475 ft 15 kts 265°
2026-04-27 02:08 -15.87775 -47.92282 3474 ft 13 kts 266°
2026-04-27 02:08 -15.87781 -47.92365 3477 ft 11 kts 265°
2026-04-27 02:08 -15.87789 -47.92463 3479 ft 15 kts 269°
2026-04-27 02:09 -15.87794 -47.92584 3479 ft 19 kts 266°
2026-04-27 02:09 -15.87803 -47.92722 3479 ft 19 kts 265°
2026-04-27 02:09 -15.87813 -47.92850 3484 ft 17 kts 268°
2026-04-27 02:09 -15.87818 -47.92965 3484 ft 15 kts 267°
2026-04-27 02:10 -15.87827 -47.93067 3486 ft 14 kts 265°
2026-04-27 02:10 -15.87832 -47.93173 3490 ft 15 kts 265°
2026-04-27 02:10 -15.87839 -47.93275 3499 ft 13 kts 266°
2026-04-27 02:10 -15.87857 -47.93356 3506 ft 11 kts 236°
2026-04-27 02:11 -15.87888 -47.93379 3503 ft 0 kts 196°
2026-04-27 02:11 -15.87896 -47.93380 3499 ft 2 kts 191°
2026-04-27 02:11 -15.87918 -47.93376 3507 ft 5 kts 154°
2026-04-27 02:11 -15.87945 -47.93343 3501 ft 8 kts 119°
2026-04-27 02:12 -15.87987 -47.93286 3499 ft 12 kts 160°
2026-04-27 02:12 -15.88007 -47.93289 3501 ft 0 kts 227°
2026-04-27 02:12 -15.88010 -47.93311 3503 ft 5 kts 259°
2026-04-27 02:12 -15.88021 -47.93319 3500 ft 1 kts 167°
2026-04-27 02:13 -15.88022 -47.93314 3498 ft 0 kts 96°
2026-04-27 02:13 -15.88021 -47.93298 3503 ft 0 kts 88°
2026-04-27 02:13 -15.88020 -47.93277 3499 ft 5 kts 87°
2026-04-27 02:13 -15.88013 -47.93125 3488 ft 54 kts 86°
2026-04-27 02:14 -15.87971 -47.92470 3481 ft 126 kts 86°
2026-04-27 02:14 -15.87899 -47.91338 3459 ft 187 kts 86°
2026-04-27 02:14 -15.87811 -47.89853 3834 ft 213 kts 91°
2026-04-27 02:14 -15.88127 -47.88441 5011 ft 203 kts 118°
2026-04-27 02:15 -15.89233 -47.87432 5493 ft 229 kts 159°
2026-04-27 02:15 -15.90882 -47.87281 6007 ft 251 kts 182°
2026-04-27 02:15 -15.92679 -47.87152 6593 ft 269 kts 166°
2026-04-27 02:15 -15.94470 -47.86433 7189 ft 282 kts 146°
2026-04-27 02:16 -15.95996 -47.85169 8162 ft 282 kts 140°
2026-04-27 02:16 -15.97545 -47.83883 9004 ft 288 kts 141°
2026-04-27 02:16 -15.99108 -47.82602 9907 ft 292 kts 142°
2026-04-27 02:16 -16.00729 -47.81282 10592 ft 303 kts 142°
2026-04-27 02:17 -16.02440 -47.79898 11002 ft 321 kts 142°
2026-04-27 02:17 -16.04246 -47.78440 11530 ft 334 kts 142°
2026-04-27 02:17 -16.06087 -47.76952 12339 ft 335 kts 142°
2026-04-27 02:17 -16.07939 -47.75453 13084 ft 339 kts 142°
2026-04-27 02:18 -16.09811 -47.73938 13840 ft 342 kts 141°
2026-04-27 02:18 -16.11695 -47.72413 14473 ft 346 kts 141°
2026-04-27 02:18 -16.13605 -47.70866 15069 ft 349 kts 141°
2026-04-27 02:18 -16.15533 -47.69304 15651 ft 353 kts 141°
2026-04-27 02:19 -16.17479 -47.67727 16240 ft 357 kts 141°
2026-04-27 02:19 -16.19448 -47.66131 16813 ft 360 kts 141°
2026-04-27 02:19 -16.21437 -47.64519 17369 ft 364 kts 141°
2026-04-27 02:19 -16.22764 -47.63444 17732 ft 367 kts 141°
2026-04-27 02:20 -16.24789 -47.61801 18265 ft 370 kts 141°
2026-04-27 02:20 -16.27497 -47.59606 18883 ft 374 kts 141°
2026-04-27 02:20 -16.29554 -47.57937 19354 ft 376 kts 141°
2026-04-27 02:20 -16.30953 -47.56802 19681 ft 377 kts 141°
2026-04-27 02:21 -16.33033 -47.55113 20141 ft 380 kts 141°
2026-04-27 02:21 -16.35120 -47.53418 20593 ft 382 kts 141°
2026-04-27 02:21 -16.37199 -47.51729 21044 ft 384 kts 141°
2026-04-27 02:21 -16.39315 -47.50011 21489 ft 387 kts 141°
2026-04-27 02:22 -16.41442 -47.48282 21931 ft 389 kts 141°
2026-04-27 02:22 -16.43581 -47.46543 22377 ft 391 kts 141°
2026-04-27 02:22 -16.45731 -47.44794 22812 ft 393 kts 141°
2026-04-27 02:22 -16.47899 -47.43031 23240 ft 396 kts 141°
2026-04-27 02:23 -16.50070 -47.41264 23651 ft 398 kts 141°
2026-04-27 02:23 -16.52265 -47.39477 23989 ft 401 kts 141°
2026-04-27 02:23 -16.54469 -47.37682 24315 ft 404 kts 141°
2026-04-27 02:23 -16.56690 -47.35873 24652 ft 406 kts 141°
2026-04-27 02:24 -16.58924 -47.34053 24987 ft 409 kts 141°
2026-04-27 02:24 -16.61177 -47.32217 25322 ft 412 kts 141°
2026-04-27 02:24 -16.63442 -47.30371 25650 ft 414 kts 141°
2026-04-27 02:24 -16.65720 -47.28514 25979 ft 417 kts 141°
2026-04-27 02:25 -16.68010 -47.26645 26312 ft 420 kts 141°
2026-04-27 02:25 -16.70318 -47.24762 26627 ft 423 kts 141°
2026-04-27 02:25 -16.72643 -47.22864 26952 ft 425 kts 141°
2026-04-27 02:25 -16.74980 -47.20956 27275 ft 428 kts 141°
2026-04-27 02:26 -16.77330 -47.19037 27586 ft 430 kts 141°
2026-04-27 02:26 -16.79695 -47.17105 27888 ft 433 kts 141°
2026-04-27 02:26 -16.82076 -47.15158 28186 ft 436 kts 141°
2026-04-27 02:26 -16.84465 -47.13197 28487 ft 438 kts 139°
2026-04-27 02:27 -16.86711 -47.11040 28781 ft 440 kts 135°
2026-04-27 02:27 -16.88953 -47.08849 29061 ft 443 kts 135°
2026-04-27 02:27 -16.91218 -47.06659 29363 ft 445 kts 136°
2026-04-27 02:27 -16.93473 -47.04491 29655 ft 448 kts 136°
2026-04-27 02:28 -16.95772 -47.02282 29921 ft 450 kts 136°
2026-04-27 02:28 -16.98084 -47.00063 30191 ft 452 kts 136°
2026-04-27 02:28 -17.00405 -46.97835 30440 ft 454 kts 136°
2026-04-27 02:28 -17.02736 -46.95595 30693 ft 456 kts 136°
2026-04-27 02:29 -17.05077 -46.93345 30934 ft 458 kts 136°
2026-04-27 02:29 -17.07432 -46.91082 31182 ft 460 kts 136°
2026-04-27 02:29 -17.09794 -46.88810 31438 ft 461 kts 136°
2026-04-27 02:29 -17.12164 -46.86530 31669 ft 464 kts 136°
2026-04-27 02:30 -17.14541 -46.84243 31913 ft 465 kts 136°
2026-04-27 02:30 -17.16991 -46.82019 32137 ft 468 kts 144°
2026-04-27 02:30 -17.19780 -46.80262 32391 ft 469 kts 148°
2026-04-27 02:30 -17.22600 -46.78512 32583 ft 472 kts 148°
2026-04-27 02:31 -17.25434 -46.76764 32816 ft 474 kts 149°
2026-04-27 02:31 -17.28282 -46.75015 33059 ft 475 kts 149°
2026-04-27 02:31 -17.31136 -46.73264 33347 ft 475 kts 149°
2026-04-27 02:31 -17.33991 -46.71513 33664 ft 475 kts 149°
2026-04-27 02:32 -17.36838 -46.69766 33983 ft 474 kts 149°
2026-04-27 02:32 -17.39682 -46.68021 34259 ft 473 kts 149°
2026-04-27 02:32 -17.42483 -46.66300 34535 ft 473 kts 149°
2026-04-27 02:32 -17.45321 -46.64557 34805 ft 472 kts 149°
2026-04-27 02:33 -17.48151 -46.62818 35071 ft 471 kts 149°
2026-04-27 02:33 -17.50973 -46.61083 35332 ft 470 kts 149°
2026-04-27 02:33 -17.53798 -46.59345 35582 ft 470 kts 149°
2026-04-27 02:33 -17.56615 -46.57612 35831 ft 469 kts 149°
2026-04-27 02:34 -17.59427 -46.55883 36076 ft 468 kts 149°
2026-04-27 02:34 -17.62236 -46.54153 36305 ft 468 kts 149°
2026-04-27 02:34 -17.65046 -46.52422 36537 ft 467 kts 149°
2026-04-27 02:34 -17.67845 -46.50698 36755 ft 467 kts 149°
2026-04-27 02:35 -17.70646 -46.48971 36972 ft 466 kts 150°
2026-04-27 02:35 -17.73439 -46.47250 37185 ft 465 kts 150°
2026-04-27 02:35 -17.76231 -46.45527 37387 ft 465 kts 150°
2026-04-27 02:35 -17.79015 -46.43809 37581 ft 464 kts 150°
2026-04-27 02:36 -17.81764 -46.42112 37770 ft 464 kts 150°
2026-04-27 02:36 -17.84540 -46.40399 37955 ft 463 kts 150°
2026-04-27 02:36 -17.87314 -46.38685 38136 ft 462 kts 150°
2026-04-27 02:36 -17.90083 -46.36974 38306 ft 462 kts 150°
2026-04-27 02:37 -17.92853 -46.35262 38469 ft 461 kts 150°
2026-04-27 02:37 -17.95618 -46.33552 38621 ft 461 kts 150°
2026-04-27 02:37 -17.98377 -46.31845 38755 ft 461 kts 150°
2026-04-27 02:37 -18.01141 -46.30135 38862 ft 460 kts 150°
2026-04-27 02:38 -18.03895 -46.28430 38995 ft 459 kts 150°
2026-04-27 02:38 -18.06651 -46.26724 39052 ft 460 kts 150°
2026-04-27 02:38 -18.12187 -46.23293 39046 ft 463 kts 150°
2026-04-27 02:39 -18.17744 -46.19849 39046 ft 464 kts 150°
2026-04-27 02:39 -18.23303 -46.16397 39046 ft 464 kts 150°
2026-04-27 02:40 -18.28865 -46.12941 39051 ft 464 kts 150°
2026-04-27 02:40 -18.34425 -46.09485 39053 ft 465 kts 150°
2026-04-27 02:41 -18.39994 -46.06020 39051 ft 465 kts 150°
2026-04-27 02:41 -18.45530 -46.02572 39048 ft 465 kts 150°
2026-04-27 02:42 -18.51099 -45.99102 39045 ft 465 kts 150°
2026-04-27 02:42 -18.56676 -45.95624 39040 ft 466 kts 150°
2026-04-27 02:43 -18.62259 -45.92139 39045 ft 466 kts 150°
2026-04-27 02:43 -18.67844 -45.88651 39041 ft 466 kts 150°
2026-04-27 02:44 -18.73426 -45.85161 39049 ft 467 kts 150°
2026-04-27 02:44 -18.79018 -45.81663 39046 ft 467 kts 150°
2026-04-27 02:45 -18.84634 -45.78197 39045 ft 467 kts 151°
2026-04-27 02:45 -18.90264 -45.74772 39041 ft 467 kts 150°
2026-04-27 02:46 -18.95890 -45.71342 39048 ft 467 kts 150°
2026-04-27 02:46 -19.01490 -45.67924 39042 ft 468 kts 150°
2026-04-27 02:47 -19.07130 -45.64479 39039 ft 468 kts 150°
2026-04-27 02:47 -19.12778 -45.61027 39040 ft 468 kts 150°
2026-04-27 02:48 -19.18421 -45.57574 39038 ft 469 kts 150°
2026-04-27 02:48 -19.24066 -45.54118 39035 ft 469 kts 150°
2026-04-27 02:49 -19.29714 -45.50657 39035 ft 469 kts 150°
2026-04-27 02:49 -19.35362 -45.47186 39031 ft 469 kts 150°
2026-04-27 02:50 -19.41006 -45.43710 39031 ft 470 kts 150°
2026-04-27 02:50 -19.46654 -45.40229 39033 ft 470 kts 150°
2026-04-27 02:51 -19.52307 -45.36743 39035 ft 470 kts 150°
2026-04-27 02:51 -19.57963 -45.33251 39034 ft 470 kts 151°
2026-04-27 02:52 -19.63583 -45.29780 39036 ft 471 kts 151°
2026-04-27 02:52 -19.69245 -45.26279 39035 ft 471 kts 151°
2026-04-27 02:53 -19.74905 -45.22776 39039 ft 471 kts 151°
2026-04-27 02:53 -19.80574 -45.19264 39041 ft 471 kts 151°
2026-04-27 02:54 -19.86248 -45.15760 39040 ft 472 kts 151°
2026-04-27 02:54 -19.91936 -45.12269 39042 ft 472 kts 151°
2026-04-27 02:55 -19.97628 -45.08771 39041 ft 472 kts 151°
2026-04-27 02:55 -20.03314 -45.05274 39046 ft 472 kts 151°
2026-04-27 02:56 -20.09004 -45.01772 39045 ft 472 kts 151°
2026-04-27 02:56 -20.14694 -44.98265 39050 ft 473 kts 151°
2026-04-27 02:57 -20.20389 -44.94754 39046 ft 473 kts 152°
2026-04-27 02:57 -20.26083 -44.91240 39051 ft 473 kts 152°
2026-04-27 02:58 -20.31780 -44.87720 39054 ft 473 kts 152°
2026-04-27 02:58 -20.37481 -44.84196 39055 ft 473 kts 152°
2026-04-27 02:59 -20.43145 -44.80691 39057 ft 474 kts 152°
2026-04-27 02:59 -20.48835 -44.77141 39061 ft 475 kts 150°
2026-04-27 03:00 -20.54463 -44.73442 39060 ft 475 kts 150°
2026-04-27 03:00 -20.60094 -44.69756 39059 ft 475 kts 150°
2026-04-27 03:01 -20.65736 -44.66063 39066 ft 476 kts 150°
2026-04-27 03:01 -20.71381 -44.62364 39076 ft 476 kts 150°
2026-04-27 03:02 -20.77025 -44.58663 39073 ft 476 kts 150°
2026-04-27 03:02 -20.82720 -44.55039 39074 ft 476 kts 152°
2026-04-27 03:03 -20.91281 -44.49627 39071 ft 476 kts 152°
2026-04-27 03:04 -20.96978 -44.46019 39075 ft 476 kts 152°
2026-04-27 03:04 -21.02655 -44.42437 39076 ft 476 kts 152°
2026-04-27 03:05 -21.08365 -44.38825 39073 ft 477 kts 152°
2026-04-27 03:05 -21.11215 -44.37015 38854 ft 475 kts 152°
2026-04-27 03:05 -21.14073 -44.35199 37875 ft 482 kts 152°
2026-04-27 03:05 -21.16975 -44.33355 37004 ft 486 kts 152°
2026-04-27 03:06 -21.19862 -44.31519 36577 ft 480 kts 152°
2026-04-27 03:06 -21.22715 -44.29703 36207 ft 473 kts 151°
2026-04-27 03:06 -21.25531 -44.27890 35623 ft 473 kts 151°
2026-04-27 03:06 -21.28351 -44.26072 35051 ft 472 kts 151°
2026-04-27 03:07 -21.31157 -44.24265 34564 ft 469 kts 151°
2026-04-27 03:07 -21.33007 -44.23072 34255 ft 468 kts 151°
2026-04-27 03:07 -21.35796 -44.21274 33691 ft 466 kts 151°
2026-04-27 03:07 -21.38574 -44.19482 33124 ft 465 kts 151°
2026-04-27 03:08 -21.41342 -44.17697 32617 ft 462 kts 151°
2026-04-27 03:08 -21.44090 -44.15923 32116 ft 460 kts 151°
2026-04-27 03:08 -21.46826 -44.14154 31564 ft 459 kts 151°
2026-04-27 03:08 -21.49560 -44.12386 31008 ft 459 kts 151°
2026-04-27 03:09 -21.52286 -44.10623 30541 ft 456 kts 151°
2026-04-27 03:09 -21.54999 -44.08867 30056 ft 454 kts 151°
2026-04-27 03:09 -21.57733 -44.07168 29449 ft 451 kts 157°
2026-04-27 03:09 -21.60581 -44.05766 28910 ft 448 kts 158°
2026-04-27 03:10 -21.63353 -44.04363 28500 ft 444 kts 157°
2026-04-27 03:10 -21.66167 -44.02917 28046 ft 441 kts 157°
2026-04-27 03:10 -21.68885 -44.01508 27583 ft 438 kts 157°
2026-04-27 03:10 -21.71620 -44.00087 27136 ft 435 kts 157°
2026-04-27 03:11 -21.74375 -43.98654 26677 ft 433 kts 157°
2026-04-27 03:11 -21.77045 -43.97264 26236 ft 431 kts 157°
2026-04-27 03:11 -21.79738 -43.95861 25793 ft 429 kts 157°
2026-04-27 03:11 -21.82420 -43.94464 25352 ft 427 kts 157°
2026-04-27 03:12 -21.85098 -43.93075 24796 ft 429 kts 157°
2026-04-27 03:12 -21.87801 -43.91684 24190 ft 432 kts 157°
2026-04-27 03:12 -21.90519 -43.90283 23628 ft 434 kts 157°
2026-04-27 03:12 -21.93252 -43.88873 22899 ft 438 kts 157°
2026-04-27 03:13 -21.96006 -43.87451 22234 ft 439 kts 157°
2026-04-27 03:13 -21.98767 -43.86026 21596 ft 440 kts 156°
2026-04-27 03:13 -22.01525 -43.84601 20971 ft 440 kts 156°
2026-04-27 03:13 -22.04292 -43.83171 20321 ft 441 kts 156°
2026-04-27 03:14 -22.07062 -43.81738 19690 ft 442 kts 156°
2026-04-27 03:14 -22.09833 -43.80305 19047 ft 442 kts 156°
2026-04-27 03:14 -22.12610 -43.78868 18406 ft 443 kts 156°
2026-04-27 03:14 -22.15386 -43.77430 17675 ft 443 kts 156°
2026-04-27 03:15 -22.18159 -43.75994 17008 ft 441 kts 156°
2026-04-27 03:15 -22.20915 -43.74566 16369 ft 438 kts 156°
2026-04-27 03:15 -22.23623 -43.73162 15739 ft 436 kts 156°
2026-04-27 03:15 -22.26349 -43.71748 15211 ft 431 kts 155°
2026-04-27 03:16 -22.29048 -43.70347 14554 ft 430 kts 155°
2026-04-27 03:16 -22.31724 -43.68959 14093 ft 423 kts 155°
2026-04-27 03:16 -22.34358 -43.67590 13579 ft 418 kts 155°
2026-04-27 03:16 -22.36984 -43.66226 12862 ft 418 kts 155°
2026-04-27 03:17 -22.39588 -43.64873 12381 ft 412 kts 155°
2026-04-27 03:17 -22.42166 -43.63533 11693 ft 412 kts 155°
2026-04-27 03:17 -22.44745 -43.62192 11186 ft 408 kts 155°
2026-04-27 03:17 -22.47279 -43.60873 10701 ft 402 kts 155°
2026-04-27 03:18 -22.49810 -43.59555 10084 ft 403 kts 155°
2026-04-27 03:18 -22.52279 -43.58269 9728 ft 395 kts 155°
2026-04-27 03:18 -22.54722 -43.56995 9420 ft 385 kts 155°
2026-04-27 03:18 -22.57104 -43.55752 9163 ft 375 kts 155°
2026-04-27 03:19 -22.59427 -43.54539 8904 ft 366 kts 155°
2026-04-27 03:19 -22.61683 -43.53359 8686 ft 356 kts 155°
2026-04-27 03:19 -22.63843 -43.52123 8473 ft 346 kts 144°
2026-04-27 03:19 -22.65448 -43.50270 8361 ft 334 kts 124°
2026-04-27 03:20 -22.66750 -43.48238 8216 ft 323 kts 125°
2026-04-27 03:20 -22.68036 -43.46285 8093 ft 313 kts 125°
2026-04-27 03:20 -22.69283 -43.44402 8020 ft 302 kts 125°
2026-04-27 03:20 -22.70480 -43.42597 8006 ft 288 kts 125°
2026-04-27 03:21 -22.71623 -43.40875 7992 ft 275 kts 126°
2026-04-27 03:21 -22.72715 -43.39232 7975 ft 262 kts 125°
2026-04-27 03:21 -22.73759 -43.37662 7966 ft 254 kts 126°
2026-04-27 03:21 -22.74790 -43.36109 7936 ft 253 kts 126°
2026-04-27 03:22 -22.75853 -43.34585 7911 ft 253 kts 135°
2026-04-27 03:22 -22.77325 -43.33612 7846 ft 249 kts 167°
2026-04-27 03:22 -22.79025 -43.33575 7652 ft 245 kts 198°
2026-04-27 03:22 -22.80479 -43.34463 7385 ft 239 kts 229°
2026-04-27 03:23 -22.81280 -43.35973 7136 ft 235 kts 259°
2026-04-27 03:23 -22.81264 -43.37703 6881 ft 231 kts 289°
2026-04-27 03:23 -22.80508 -43.39212 6603 ft 229 kts 308°
2026-04-27 03:23 -22.79547 -43.40590 6320 ft 228 kts 308°
2026-04-27 03:24 -22.78583 -43.41948 6049 ft 227 kts 308°
2026-04-27 03:24 -22.77613 -43.43292 5761 ft 226 kts 309°
2026-04-27 03:24 -22.76628 -43.44611 5466 ft 225 kts 313°
2026-04-27 03:24 -22.75336 -43.45502 5200 ft 221 kts 346°
2026-04-27 03:25 -22.73821 -43.45475 4939 ft 222 kts 17°
2026-04-27 03:25 -22.72524 -43.44566 4690 ft 227 kts 47°
2026-04-27 03:25 -22.71793 -43.43044 4395 ft 232 kts 75°
2026-04-27 03:25 -22.71787 -43.41298 4095 ft 235 kts 101°
2026-04-27 03:26 -22.72491 -43.39709 3919 ft 231 kts 123°
2026-04-27 03:26 -22.73381 -43.38324 3845 ft 217 kts 123°
2026-04-27 03:26 -22.74228 -43.37014 3691 ft 207 kts 123°
2026-04-27 03:26 -22.75039 -43.35771 3563 ft 197 kts 123°
2026-04-27 03:27 -22.75878 -43.34619 3421 ft 195 kts 140°
2026-04-27 03:27 -22.77107 -43.34075 3298 ft 193 kts 178°
2026-04-27 03:27 -22.78388 -43.34399 3197 ft 190 kts 214°
2026-04-27 03:27 -22.79252 -43.35415 3111 ft 186 kts 249°
2026-04-27 03:28 -22.79456 -43.36752 3040 ft 180 kts 282°
2026-04-27 03:28 -22.79003 -43.37985 2983 ft 177 kts 305°
2026-04-27 03:28 -22.78308 -43.39094 2823 ft 179 kts 307°
2026-04-27 03:28 -22.77582 -43.40206 2463 ft 182 kts 309°
2026-04-27 03:29 -22.76781 -43.41287 2082 ft 186 kts 313°
2026-04-27 03:29 -22.75905 -43.42273 1806 ft 174 kts 329°
2026-04-27 03:29 -22.74799 -43.42615 1803 ft 161 kts
2026-04-27 03:29 -22.73766 -43.42253 1795 ft 155 kts 33°
2026-04-27 03:30 -22.73065 -43.41412 1785 ft 150 kts 61°
2026-04-27 03:30 -22.72814 -43.40337 1761 ft 149 kts 87°
2026-04-27 03:30 -22.73027 -43.39243 1737 ft 150 kts 114°
2026-04-27 03:30 -22.73539 -43.38250 1819 ft 152 kts 117°
2026-04-27 03:31 -22.74078 -43.37260 1839 ft 153 kts 120°
2026-04-27 03:31 -22.74664 -43.36303 1811 ft 152 kts 122°
2026-04-27 03:31 -22.75280 -43.35366 1725 ft 154 kts 125°
2026-04-27 03:31 -22.75931 -43.34434 1628 ft 160 kts 125°
2026-04-27 03:32 -22.76617 -43.33450 1538 ft 164 kts 124°
2026-04-27 03:32 -22.77300 -43.32426 1397 ft 171 kts 123°
2026-04-27 03:32 -22.77997 -43.31371 1287 ft 174 kts 124°
2026-04-27 03:32 -22.78687 -43.30286 1172 ft 177 kts 123°
2026-04-27 03:33 -22.79362 -43.29230 979 ft 162 kts 124°
2026-04-27 03:33 -22.80003 -43.28237 871 ft 174 kts 124°
2026-04-27 03:33 -22.80750 -43.27050 1149 ft 207 kts 123°
2026-04-27 03:33 -22.81626 -43.25609 1452 ft 252 kts 116°
2026-04-27 03:34 -22.82179 -43.23822 2220 ft 245 kts 96°
2026-04-27 03:34 -22.82240 -43.22044 3169 ft 231 kts 87°
2026-04-27 03:34 -22.82228 -43.20281 3672 ft 240 kts 87°
2026-04-27 03:34 -22.82211 -43.18366 3730 ft 269 kts 87°
2026-04-27 03:35 -22.82188 -43.16228 3725 ft 298 kts 88°
2026-04-27 03:35 -22.82162 -43.13948 3737 ft 297 kts 88°
2026-04-27 03:35 -22.82138 -43.11769 3786 ft 282 kts 89°
2026-04-27 03:35 -22.82194 -43.09699 3791 ft 268 kts 90°
2026-04-27 03:36 -22.82253 -43.07735 3790 ft 254 kts 90°
2026-04-27 03:36 -22.82306 -43.05874 3790 ft 240 kts 90°
2026-04-27 03:36 -22.82355 -43.04096 3795 ft 234 kts 90°
2026-04-27 03:36 -22.82402 -43.02338 3786 ft 234 kts 89°
2026-04-27 03:37 -22.82448 -43.00579 3785 ft 233 kts 89°
2026-04-27 03:37 -22.82494 -42.98824 3785 ft 233 kts 89°
2026-04-27 03:37 -22.82541 -42.97065 3788 ft 233 kts 90°
2026-04-27 03:37 -22.82590 -42.95310 3796 ft 233 kts 90°
2026-04-27 03:38 -22.82638 -42.93555 3795 ft 232 kts 90°
2026-04-27 03:38 -22.82686 -42.91804 3793 ft 232 kts 90°
2026-04-27 03:38 -22.82734 -42.90056 3801 ft 232 kts 90°
2026-04-27 03:38 -22.82781 -42.88304 3797 ft 232 kts 89°
2026-04-27 03:39 -22.82829 -42.86557 3793 ft 232 kts 89°
2026-04-27 03:39 -22.82877 -42.84809 3800 ft 234 kts 90°
2026-04-27 03:39 -22.82970 -42.82977 3803 ft 252 kts 92°
2026-04-27 03:39 -22.83088 -42.81016 3802 ft 267 kts 92°
2026-04-27 03:40 -22.83208 -42.79014 3792 ft 272 kts 92°
2026-04-27 03:40 -22.83337 -42.76956 3800 ft 275 kts 96°
2026-04-27 03:40 -22.83908 -42.75009 3802 ft 268 kts 119°
2026-04-27 03:40 -22.85100 -42.73537 3783 ft 256 kts 144°
2026-04-27 03:41 -22.86684 -42.72831 3802 ft 240 kts 173°
2026-04-27 03:41 -22.88316 -42.72957 3818 ft 235 kts 198°
2026-04-27 03:41 -22.89695 -42.73847 3637 ft 229 kts 229°
2026-04-27 03:41 -22.90446 -42.75317 3753 ft 224 kts 258°
2026-04-27 03:42 -22.90482 -42.76991 3827 ft 222 kts 286°
2026-04-27 03:42 -22.89827 -42.78483 3825 ft 221 kts 311°
2026-04-27 03:42 -22.88647 -42.79525 3810 ft 220 kts 331°
2026-04-27 03:42 -22.87278 -42.80286 3816 ft 221 kts 334°
2026-04-27 03:43 -22.85885 -42.81002 3810 ft 221 kts 335°
2026-04-27 03:43 -22.84488 -42.81713 3810 ft 222 kts 331°
2026-04-27 03:43 -22.83398 -42.82852 3761 ft 221 kts 298°
2026-04-27 03:43 -22.83029 -42.84462 3784 ft 225 kts 274°
2026-04-27 03:44 -22.83355 -42.86112 3757 ft 228 kts 240°
2026-04-27 03:44 -22.84517 -42.87258 3789 ft 232 kts 204°
2026-04-27 03:44 -22.86108 -42.87503 3810 ft 235 kts 169°
2026-04-27 03:44 -22.87574 -42.86784 3792 ft 234 kts 136°
2026-04-27 03:45 -22.88453 -42.85343 3792 ft 230 kts 103°
2026-04-27 03:45 -22.88619 -42.83632 3807 ft 230 kts 89°
2026-04-27 03:45 -22.88643 -42.81888 3813 ft 232 kts 88°
2026-04-27 03:45 -22.88639 -42.80165 3807 ft 232 kts 87°
2026-04-27 03:46 -22.88614 -42.78396 3801 ft 232 kts 85°
2026-04-27 03:46 -22.88184 -42.76764 3705 ft 224 kts 52°
2026-04-27 03:46 -22.87009 -42.75760 3836 ft 217 kts 18°
2026-04-27 03:46 -22.85540 -42.75617 3815 ft 219 kts 346°
2026-04-27 03:47 -22.84205 -42.76363 3818 ft 219 kts 317°
2026-04-27 03:47 -22.83351 -42.77733 3833 ft 223 kts 290°
2026-04-27 03:47 -22.83113 -42.79393 3821 ft 225 kts 275°
2026-04-27 03:47 -22.83036 -42.81093 3822 ft 226 kts 274°
2026-04-27 03:48 -22.82965 -42.82796 3815 ft 226 kts 274°
2026-04-27 03:48 -22.82901 -42.84498 3794 ft 226 kts 274°
2026-04-27 03:48 -22.83190 -42.86161 3756 ft 228 kts 242°
2026-04-27 03:48 -22.84309 -42.87355 3773 ft 232 kts 207°
2026-04-27 03:49 -22.85885 -42.87678 3782 ft 234 kts 172°
2026-04-27 03:49 -22.87382 -42.87038 3792 ft 234 kts 140°
2026-04-27 03:49 -22.88352 -42.85652 3795 ft 231 kts 108°
2026-04-27 03:49 -22.88588 -42.83953 3793 ft 229 kts 89°
2026-04-27 03:50 -22.88617 -42.82211 3820 ft 232 kts 88°
2026-04-27 03:50 -22.88618 -42.80466 3808 ft 231 kts 88°
2026-04-27 03:50 -22.88610 -42.78720 3802 ft 232 kts 88°
2026-04-27 03:50 -22.88374 -42.77042 3721 ft 227 kts 62°
2026-04-27 03:51 -22.87348 -42.75845 3760 ft 217 kts 25°
2026-04-27 03:51 -22.85891 -42.75504 3825 ft 218 kts 353°
2026-04-27 03:51 -22.84488 -42.76074 3798 ft 218 kts 322°
2026-04-27 03:51 -22.83514 -42.77333 3836 ft 222 kts 296°
2026-04-27 03:52 -22.83141 -42.78954 3820 ft 224 kts 275°
2026-04-27 03:52 -22.83059 -42.80647 3818 ft 226 kts 275°
2026-04-27 03:52 -22.82986 -42.82346 3816 ft 226 kts 274°
2026-04-27 03:52 -22.82919 -42.84048 3796 ft 226 kts 274°
2026-04-27 03:53 -22.83032 -42.85739 3771 ft 227 kts 251°
2026-04-27 03:53 -22.83957 -42.87104 3765 ft 230 kts 215°
2026-04-27 03:53 -22.85459 -42.87674 3777 ft 234 kts 181°
2026-04-27 03:53 -22.87025 -42.87271 3792 ft 234 kts 148°
2026-04-27 03:54 -22.88167 -42.86048 3797 ft 232 kts 116°
2026-04-27 03:54 -22.88574 -42.84390 3782 ft 228 kts 89°
2026-04-27 03:54 -22.88622 -42.82656 3824 ft 231 kts 89°
2026-04-27 03:54 -22.88631 -42.80912 3808 ft 231 kts 88°
2026-04-27 03:55 -22.88622 -42.79755 3802 ft 231 kts 88°
2026-04-27 03:55 -22.88574 -42.78010 3798 ft 231 kts 79°
2026-04-27 03:55 -22.87951 -42.76473 3701 ft 220 kts 44°
2026-04-27 03:55 -22.86666 -42.75657 3857 ft 217 kts 11°
2026-04-27 03:56 -22.85173 -42.75736 3804 ft 218 kts 339°
2026-04-27 03:56 -22.83942 -42.76667 3823 ft 220 kts 310°
2026-04-27 03:56 -22.83242 -42.78134 3816 ft 223 kts 283°
2026-04-27 03:56 -22.83096 -42.79813 3815 ft 225 kts 275°
2026-04-27 03:57 -22.83019 -42.81509 3813 ft 226 kts 274°
2026-04-27 03:57 -22.82951 -42.83208 3804 ft 226 kts 274°
2026-04-27 03:57 -22.82900 -42.84908 3790 ft 226 kts 269°
2026-04-27 03:57 -22.83391 -42.86508 3756 ft 228 kts 233°
2026-04-27 03:58 -22.84661 -42.87515 3786 ft 232 kts 198°
2026-04-27 03:58 -22.86262 -42.87597 3793 ft 234 kts 164°
2026-04-27 03:58 -22.87667 -42.86744 3793 ft 233 kts 131°
2026-04-27 03:58 -22.88455 -42.85242 3789 ft 230 kts 99°
2026-04-27 03:59 -22.88577 -42.83527 3807 ft 230 kts 88°
2026-04-27 03:59 -22.88592 -42.81785 3813 ft 232 kts 88°
2026-04-27 03:59 -22.88595 -42.80038 3803 ft 231 kts 87°
2026-04-27 03:59 -22.88574 -42.78290 3803 ft 231 kts 83°
2026-04-27 04:00 -22.88079 -42.76714 3683 ft 221 kts 47°
2026-04-27 04:00 -22.86871 -42.75773 3849 ft 217 kts 16°
2026-04-27 04:00 -22.85367 -42.75703 3784 ft 217 kts 343°
2026-04-27 04:00 -22.84080 -42.76526 3791 ft 219 kts 314°
2026-04-27 04:01 -22.83216 -42.77881 3800 ft 226 kts 298°
2026-04-27 04:01 -22.82701 -42.79497 3730 ft 228 kts 285°
2026-04-27 04:01 -22.82309 -42.81169 3668 ft 229 kts 286°
2026-04-27 04:01 -22.81906 -42.82837 3591 ft 228 kts 287°
2026-04-27 04:02 -22.81497 -42.84501 3561 ft 229 kts 287°
2026-04-27 04:02 -22.81080 -42.86167 3523 ft 229 kts 287°
2026-04-27 04:02 -22.80661 -42.87831 3498 ft 229 kts 287°
2026-04-27 04:02 -22.80240 -42.89494 3475 ft 229 kts 287°
2026-04-27 04:03 -22.79818 -42.91159 3467 ft 229 kts 287°
2026-04-27 04:03 -22.79396 -42.92824 3467 ft 229 kts 287°
2026-04-27 04:03 -22.78972 -42.94490 3471 ft 229 kts 287°
2026-04-27 04:03 -22.78550 -42.96153 3465 ft 229 kts 287°
2026-04-27 04:04 -22.78132 -42.97792 3466 ft 229 kts 287°
2026-04-27 04:04 -22.77709 -42.99454 3466 ft 229 kts 287°
2026-04-27 04:04 -22.77287 -43.01110 3476 ft 228 kts 287°
2026-04-27 04:04 -22.76864 -43.02774 3435 ft 229 kts 287°
2026-04-27 04:05 -22.76443 -43.04428 3435 ft 228 kts 287°
2026-04-27 04:05 -22.76019 -43.06085 3648 ft 227 kts 287°
2026-04-27 04:05 -22.75602 -43.07716 4669 ft 226 kts 287°
2026-04-27 04:05 -22.75174 -43.09393 5608 ft 231 kts 287°
2026-04-27 04:06 -22.74741 -43.11088 6044 ft 234 kts 286°
2026-04-27 04:06 -22.74312 -43.12767 6157 ft 234 kts 287°
2026-04-27 04:06 -22.73877 -43.14464 6182 ft 233 kts 287°
2026-04-27 04:07 -22.73010 -43.17851 6183 ft 233 kts 287°
2026-04-27 04:07 -22.72578 -43.19540 6185 ft 233 kts 287°
2026-04-27 04:07 -22.72144 -43.21234 6182 ft 233 kts 287°
2026-04-27 04:07 -22.71711 -43.22923 6180 ft 233 kts 287°
2026-04-27 04:08 -22.71279 -43.24610 6182 ft 233 kts 287°
2026-04-27 04:08 -22.70843 -43.26304 6182 ft 233 kts 287°
2026-04-27 04:08 -22.70410 -43.27993 6182 ft 233 kts 287°
2026-04-27 04:08 -22.69975 -43.29683 6190 ft 233 kts 287°
2026-04-27 04:09 -22.69541 -43.31372 6182 ft 233 kts 287°
2026-04-27 04:09 -22.69103 -43.33078 5876 ft 238 kts 287°
2026-04-27 04:09 -22.68653 -43.34822 5429 ft 241 kts 287°
2026-04-27 04:09 -22.68202 -43.36574 4997 ft 241 kts 287°
2026-04-27 04:10 -22.67754 -43.38315 4555 ft 240 kts 288°
2026-04-27 04:10 -22.67307 -43.40055 4113 ft 240 kts 288°
2026-04-27 04:10 -22.66950 -43.41807 3683 ft 240 kts 274°
2026-04-27 04:10 -22.67337 -43.43544 3364 ft 238 kts 242°
2026-04-27 04:11 -22.68492 -43.44792 3163 ft 239 kts 210°
2026-04-27 04:11 -22.70061 -43.45211 3022 ft 226 kts 176°
2026-04-27 04:11 -22.71448 -43.44695 2965 ft 201 kts 140°
2026-04-27 04:11 -22.72304 -43.43606 2848 ft 186 kts 108°
2026-04-27 04:12 -22.72372 -43.42288 2748 ft 177 kts 71°
2026-04-27 04:12 -22.72126 -43.40970 2799 ft 183 kts 93°
2026-04-27 04:12 -22.72593 -43.39683 2795 ft 183 kts 117°
2026-04-27 04:12 -22.73243 -43.38503 2604 ft 182 kts 121°
2026-04-27 04:13 -22.73930 -43.37407 2394 ft 168 kts 123°
2026-04-27 04:13 -22.74596 -43.36397 2192 ft 163 kts 124°
2026-04-27 04:13 -22.75255 -43.35402 1974 ft 162 kts 124°
2026-04-27 04:13 -22.75904 -43.34427 1788 ft 161 kts 124°
2026-04-27 04:14 -22.76553 -43.33447 1574 ft 160 kts 124°
2026-04-27 04:14 -22.77207 -43.32462 1371 ft 159 kts 124°
2026-04-27 04:14 -22.77854 -43.31485 1162 ft 159 kts 124°
2026-04-27 04:14 -22.78488 -43.30528 967 ft 158 kts 125°
2026-04-27 04:15 -22.79133 -43.29556 771 ft 155 kts 125°
2026-04-27 04:15 -22.79749 -43.28625 580 ft 153 kts 125°
2026-04-27 04:15 -22.80364 -43.27693 396 ft 156 kts 126°
2026-04-27 04:15 -22.80990 -43.26751 206 ft 148 kts 126°
2026-04-27 04:16 -22.81566 -43.25879 31 ft 133 kts 126°
2026-04-27 04:16 -22.82045 -43.25157 27 ft 98 kts 126°
2026-04-27 04:16 -22.82291 -43.24788 22 ft 27 kts 122°
2026-04-27 04:16 -22.82348 -43.24629 22 ft 19 kts 101°
2026-04-27 04:17 -22.82364 -43.24514 21 ft 16 kts 96°
2026-04-27 04:17 -22.82316 -43.24406 21 ft 19 kts 31°
2026-04-27 04:17 -22.82233 -43.24343 24 ft 14 kts 36°
2026-04-27 04:17 -22.82142 -43.24300 27 ft 16 kts 344°
2026-04-27 04:18 -22.82063 -43.24395 24 ft 19 kts 306°
2026-04-27 04:18 -22.82007 -43.24484 24 ft 10 kts 304°
2026-04-27 04:18 -22.81962 -43.24554 24 ft 13 kts 307°
2026-04-27 04:18 -22.81908 -43.24607 24 ft 11 kts 347°
2026-04-27 04:19 -22.81848 -43.24581 25 ft 9 kts 34°
2026-04-27 04:19 -22.81783 -43.24554 24 ft 11 kts 349°
2026-04-27 04:19 -22.81725 -43.24621 25 ft 14 kts 304°
2026-04-27 04:19 -22.81670 -43.24707 25 ft 7 kts 304°
2026-04-27 04:20 -22.81644 -43.24715 27 ft 4 kts 14°
2026-04-27 04:20 -22.81613 -43.24701 24 ft 4 kts 24°
2026-04-27 04:20 -22.81605 -43.24696 25 ft 1 kts 27°
2026-04-27 04:20 -22.81598 -43.24692 25 ft 1 kts 27°
2026-04-27 04:21 -22.81597 -43.24692 26 ft 0 kts 27°